Regional Weather Roundup
Issued by NWS

Home | Current Version | Previous Version | Graphics & Text | Print | Product List | Glossary On
Versions: 1 2 3 4 5 6 7 8 9 10 11 12 13 14 15 16 17 18 19 20 21 22 23 24 25 26 27 28 29 30 31 32 33 34 35 36 37 38 39 40 41 42 43 44 45 46 47 48 49 50
000
ASUS45 KCYS 212210
RWRWY

WYOMING REGIONAL WEATHER ROUNDUP
NATIONAL WEATHER SERVICE CHEYENNE WY
400 PM MDT THU AUG 21 2014

NOTE:  "FAIR" INDICATES FEW OR NO CLOUDS BELOW 12,000 FEET
WITH NO SIGNIFICANT WEATHER AND/OR OBSTRUCTIONS TO VISIBILITY.

WYZ001-212300-
YELLOWSTONE NATIONAL PARK

CITY           SKY/WX    TMP DP  RH WIND       PRES   REMARKS
LK YELLOWSTONE   N/A     53  43  68 CALM      30.25F
W YELLOWSTONE  NOT AVBL

$$
WYZ002>013-054>058-071-098>099-212300-
NORTHERN WYOMING

CITY           SKY/WX    TMP DP  RH WIND       PRES   REMARKS
JACKSON        MOSUNNY   63  48  59 S12       30.17F
CODY           PTSUNNY  N/A N/A N/A CALM      30.07S
GREYBULL       CLOUDY    69  54  58 NE9       30.02F
WORLAND        PTSUNNY   72  50  45 N14       30.02S
SHERIDAN       PTSUNNY   64  57  78 NW16G22   30.04R
BUFFALO        CLOUDY    73  51  46 N10       30.06F
GILLETTE       PTSUNNY   79  49  34 SE3       29.99S
HULETT         MOCLDY    77  50  38 MISG      30.01
NEWCASTLE      FAIR      82  36  18 W6        29.97

$$
WYZ014>020-022>026-101>103-212300-
CENTRAL WYOMING

CITY           SKY/WX    TMP DP  RH WIND       PRES   REMARKS
BIG PINEY      CLOUDY    58  45  62 N16       30.23R
PINEDALE       CLOUDY    59  45  58 NW21G28   30.24R
DUBOIS         CLOUDY    61  41  48 NW16      30.19F
LANDER         CLOUDY    72  41  32 NW13      30.06R
RIVERTON       PTSUNNY   75  42  30 NW12G21   30.07R
CASPER         PTSUNNY   82  39  21 W17G24    30.04S
DOUGLAS        MOSUNNY   84  42  22 W15G23    30.03F

$$
WYZ021-027>030-104>119-212300-
SOUTHERN WYOMING

CITY           SKY/WX    TMP DP  RH WIND       PRES   REMARKS
EVANSTON       CLOUDY    65  42  43 SW10      30.23F
KEMMERER       CLOUDY    63  43  48 W14G24    30.24F
FORT BRIDGER   FAIR      64  48  57 W12G17    30.27F
ROCK SPRINGS   CLOUDY    55  50  83 S6        30.24S
DIXON          MOCLDY    75  42  30 SW13G20   30.21F
RAWLINS        LGT RAIN  63  47  55 SW22G30   30.21R
SARATOGA       MOCLDY    70  43  37 MISG      30.23S
LARAMIE        PTSUNNY   73  39  29 W15G21    30.22S
CHEYENNE       PTSUNNY   78  40  25 W8G18     30.14R
TORRINGTON     MOSUNNY   88  41  19 W6        29.98F
PINE BLUFFS    CLOUDY    79  43  27 SE6       30.09R

$$



USA.gov is the U.S. government's official web portal to all federal, state and local government web resources and services.